TimeCET,TemperatureF,Dew PointF,Humidity,Sea Level PressureIn,VisibilityMPH,Wind Direction,Wind SpeedMPH,Gust SpeedMPH,PrecipitationIn,Events,Conditions,WindDirDegrees,DateUTC
12:20 AM,39.2,39.2,100,29.68,-9999.0,NE,3.5,-,N/A,,Clear,50,2012-12-05 23:20:00
12:50 AM,39.2,37.4,93,29.68,-9999.0,NNW,3.5,-,N/A,,Clear,340,2012-12-05 23:50:00
1:20 AM,39.2,37.4,93,29.68,-9999.0,NNE,3.5,-,N/A,,Clear,20,2012-12-06 00:20:00
1:50 AM,37.4,35.6,93,29.68,-9999.0,NNW,2.3,-,N/A,,Clear,330,2012-12-06 00:50:00
2:20 AM,37.4,35.6,93,29.68,-9999.0,NNW,3.5,-,N/A,,Clear,340,2012-12-06 01:20:00
2:50 AM,39.2,37.4,93,29.68,-9999.0,North,4.6,-,N/A,,Clear,360,2012-12-06 01:50:00
3:20 AM,35.6,33.8,93,29.71,-9999.0,WNW,5.8,-,N/A,,Clear,290,2012-12-06 02:20:00
3:50 AM,35.6,33.8,93,29.71,-9999.0,WNW,5.8,-,N/A,,Clear,300,2012-12-06 02:50:00
4:20 AM,37.4,35.6,93,29.71,-9999.0,NW,2.3,-,N/A,,Clear,320,2012-12-06 03:20:00
4:50 AM,35.6,33.8,93,29.68,-9999.0,North,2.3,-,N/A,,Clear,350,2012-12-06 03:50:00
5:20 AM,37.4,35.6,93,29.68,-9999.0,North,3.5,-,N/A,,Clear,350,2012-12-06 04:20:00
5:50 AM,37.4,35.6,93,29.71,6.2,NNW,3.5,-,N/A,,Scattered Clouds,330,2012-12-06 04:50:00
6:20 AM,35.6,33.8,93,29.71,6.2,NW,3.5,-,N/A,,Partly Cloudy,320,2012-12-06 05:20:00
6:50 AM,37.4,35.6,93,29.71,-9999.0,North,3.5,-,N/A,,Clear,360,2012-12-06 05:50:00
7:20 AM,37.4,35.6,93,29.71,-9999.0,NNE,3.5,-,N/A,,Clear,20,2012-12-06 06:20:00
7:50 AM,37.4,35.6,93,29.74,-9999.0,NE,4.6,-,N/A,,Clear,50,2012-12-06 06:50:00
8:20 AM,39.2,35.6,87,29.74,-9999.0,North,4.6,-,N/A,,Clear,360,2012-12-06 07:20:00
8:50 AM,41.0,35.6,81,29.74,-9999.0,NNW,3.5,-,N/A,,Clear,340,2012-12-06 07:50:00
9:20 AM,42.8,35.6,76,29.74,-9999.0,NNW,3.5,-,N/A,,Clear,330,2012-12-06 08:20:00
9:50 AM,44.6,35.6,71,29.74,-9999.0,North,4.6,-,N/A,,Clear,350,2012-12-06 08:50:00
10:20 AM,44.6,33.8,66,29.74,6.2,Variable,2.3,-,N/A,,Scattered Clouds,0,2012-12-06 09:20:00
10:50 AM,46.4,37.4,71,29.77,6.2,West,3.5,-,N/A,,Scattered Clouds,280,2012-12-06 09:50:00
11:20 AM,48.2,35.6,62,29.74,6.2,Variable,2.3,-,N/A,,Mostly Cloudy,0,2012-12-06 10:20:00
11:50 AM,48.2,39.2,71,29.74,6.2,ENE,4.6,-,N/A,,Mostly Cloudy,60,2012-12-06 10:50:00
12:20 PM,48.2,37.4,66,29.74,6.2,North,5.8,-,N/A,,Scattered Clouds,10,2012-12-06 11:20:00
12:50 PM,50.0,33.8,54,29.74,-9999.0,NNE,4.6,-,N/A,,Clear,20,2012-12-06 11:50:00
1:20 PM,50.0,32.0,50,29.74,-9999.0,NNE,3.5,-,N/A,,Clear,20,2012-12-06 12:20:00
1:50 PM,51.8,32.0,47,29.74,-9999.0,Calm,Calm,-,N/A,,Clear,0,2012-12-06 12:50:00
2:50 PM,51.8,32.0,47,29.74,-9999.0,Variable,2.3,-,N/A,,Clear,0,2012-12-06 13:50:00
3:20 PM,51.8,33.8,50,29.77,-9999.0,NNW,5.8,-,N/A,,Clear,340,2012-12-06 14:20:00
3:50 PM,50.0,33.8,54,29.77,-9999.0,NNE,3.5,-,N/A,,Clear,20,2012-12-06 14:50:00
4:20 PM,50.0,33.8,54,29.77,-9999.0,Variable,4.6,-,N/A,,Clear,0,2012-12-06 15:20:00
4:50 PM,48.2,35.6,62,29.80,-9999.0,ENE,2.3,-,N/A,,Clear,60,2012-12-06 15:50:00
5:20 PM,46.4,33.8,62,29.80,-9999.0,Calm,Calm,-,N/A,,Clear,0,2012-12-06 16:20:00
5:50 PM,46.4,33.8,62,29.80,-9999.0,Calm,Calm,-,N/A,,Clear,0,2012-12-06 16:50:00
6:20 PM,42.8,35.6,76,29.83,-9999.0,West,2.3,-,N/A,,Clear,280,2012-12-06 17:20:00
6:50 PM,44.6,35.6,71,29.83,-9999.0,NE,3.5,-,N/A,,Clear,40,2012-12-06 17:50:00
7:20 PM,42.8,35.6,76,29.83,-9999.0,NNE,3.5,-,N/A,,Clear,30,2012-12-06 18:20:00
7:50 PM,42.8,33.8,70,29.86,-9999.0,NNE,3.5,-,N/A,,Clear,20,2012-12-06 18:50:00
8:20 PM,42.8,33.8,70,29.86,-9999.0,North,3.5,-,N/A,,Clear,350,2012-12-06 19:20:00
8:50 PM,39.2,33.8,81,29.89,-9999.0,NNW,3.5,-,N/A,,Clear,330,2012-12-06 19:50:00
9:20 PM,41.0,32.0,70,29.89,-9999.0,North,5.8,-,N/A,,Clear,10,2012-12-06 20:20:00
9:50 PM,39.2,32.0,75,29.89,-9999.0,North,4.6,-,N/A,,Clear,10,2012-12-06 20:50:00
10:20 PM,41.0,32.0,70,29.89,-9999.0,NW,3.5,-,N/A,,Clear,320,2012-12-06 21:20:00
10:50 PM,39.2,30.2,70,29.89,5.0,West,4.6,-,N/A,,Unknown,270,2012-12-06 21:50:00
11:20 PM,39.2,32.0,75,29.89,5.0,NNW,3.5,-,N/A,,Unknown,330,2012-12-06 22:20:00
11:50 PM,39.2,32.0,75,29.92,5.0,WNW,3.5,-,N/A,,Unknown,300,2012-12-06 22:50:00